Location: ????????
(55.3939°N, 37.4780°E)
Time: 15:51:42
(UTC+00:00)

Cosmos 1602 Rocket - Pass Details

Date: 14 April 2026
Orbit: 596 x 626 km, 82.5° (Epoch: 17 May)

Event Time Altitude Azimuth Distance (km) Brightness Sun altitude
Rises 22:47:36 0° 346° (NNW) 2,879 7.9 -22.9°
Reaches altitude 10° 22:49:51 10° 344° (NNW) 1,966 6.8 -22.8°
Maximum altitude 22:54:09 69° 263° (W) 651 3.4 -22.6°
Enters shadow 22:54:12 69° 258° (WSW) 651 3.4 -22.6°
